Weather History for Concord, NH

Change the Weather History Date:

Sunday, October 20, 2013

  Actual Average Record
Temperature  
Mean Temperature 47 °F 47 °F  
Max Temperature 60 °F 59 °F 77 °F (1916)
Min Temperature 33 °F 34 °F 12 °F (1972)
Degree Days  
Heating Degree Days 18 18  
Month to date heating degree days 217 302  
Since 1 July heating degree days 446 537  
Cooling Degree Days 0 0  
Month to date cooling degree days 0 0  
Year to date cooling degree days 537 450  
Moisture  
Dew Point 37 °F    
Average Humidity 68    
Maximum Humidity 100    
Minimum Humidity 36    
Precipitation  
Precipitation T in 0.13 in 3.53 in (1996)
Month to date precipitation 1.16 2.62  
Year to date precipitation 34.26 32.27  
Snow  
Snow 0.00 in 0.00 in 0.70 in (1926)
Month to date snowfall 0.0 0.0  
Since 1 July snowfall 0.0 0.0  
Since 1 September snowfall 0.0 0.0  
Snow Depth 0.00 in    
Sea Level Pressure  
Sea Level Pressure 29.82 in    
Wind  
Wind Speed 7 mph (WSW)    
Max Wind Speed 22 mph    
Max Gust Speed 29 mph    
Visibility 10 miles    
Events Rain    
T = Trace of Precipitation, MM = Missing Value Source: NWS Daily Summary

Daily Weather History Graph

Daily Weather History Graph

Search for Another Location

Airport:

Trip Planner

Search our weather history database for the weather conditions in past years. The results will help you decide how hot, cold, wet, or windy it might be!

Date:

Astronomy

Oct. 20, 2013 Rise Set
Actual Time 7:06 AM EDT 5:54 PM EDT
Civil Twilight 6:37 AM EDT 6:23 PM EDT
Nautical Twilight 6:03 AM EDT 6:56 PM EDT
Astronomical Twilight 5:31 AM EDT 7:29 PM EDT
Moon 6:58 PM EDT (10/20) 8:43 AM EDT (10/20)
Length of Visible Light 11h 46m
Length of Day
10h 48m
Full, 97% of the Moon is Illuminated
Oct 20
Full
Oct 26
Last Quarter
Nov 3
New
Nov 10
First Quarter
Nov 17
Full

Hourly Weather History & Observations

Time (EDT) Temp. Windchill Dew Point Humidity Pressure Visibility Wind Dir Wind Speed Gust Speed Precip Events Conditions
12:51 AM 52.0 °F - 46.9 °F 83% 29.72 in 10.0 mi SSE 4.6 mph - 0.00 in Rain Light Rain
1:51 AM 51.1 °F - 48.0 °F 89% 29.70 in 10.0 mi Calm Calm - 0.00 in   Mostly Cloudy
2:51 AM 48.9 °F - 46.0 °F 90% 29.69 in 10.0 mi South 3.5 mph - N/A   Mostly Cloudy
2:59 AM 48.2 °F - 46.4 °F 93% 29.69 in 10.0 mi South 3.5 mph - N/A   Scattered Clouds
3:51 AM 46.9 °F - 45.0 °F 93% 29.68 in 10.0 mi South 6.9 mph - N/A   Clear
4:51 AM 44.1 °F - 44.1 °F 100% 29.69 in 9.0 mi Calm Calm - N/A   Partly Cloudy
5:51 AM 48.0 °F - 46.0 °F 93% 29.70 in 10.0 mi Calm Calm - N/A   Overcast
6:51 AM 48.0 °F - 43.0 °F 83% 29.73 in 10.0 mi WSW 9.2 mph - N/A   Clear
7:51 AM 48.0 °F - 41.0 °F 77% 29.75 in 10.0 mi SW 6.9 mph - N/A   Clear
8:51 AM 50.0 °F - 41.0 °F 71% 29.78 in 10.0 mi SW 9.2 mph - N/A   Clear
9:51 AM 55.0 °F - 37.9 °F 53% 29.81 in 10.0 mi West 8.1 mph - N/A   Scattered Clouds
10:51 AM 55.9 °F - 35.1 °F 45% 29.82 in 10.0 mi NW 9.2 mph 21.9 mph N/A   Scattered Clouds
11:51 AM 57.9 °F - 33.1 °F 39% 29.82 in 10.0 mi NW 16.1 mph 24.2 mph N/A   Clear
12:51 PM 59.0 °F - 33.1 °F 38% 29.82 in 10.0 mi WNW 13.8 mph 23.0 mph N/A   Clear
1:51 PM 55.9 °F - 32.0 °F 40% 29.83 in 10.0 mi WNW 15.0 mph 21.9 mph N/A   Partly Cloudy
2:51 PM 59.0 °F - 32.0 °F 36% 29.85 in 10.0 mi WNW 13.8 mph 23.0 mph N/A   Partly Cloudy
3:51 PM 57.9 °F - 32.0 °F 37% 29.86 in 10.0 mi West 15.0 mph 25.3 mph N/A   Partly Cloudy
4:51 PM 55.9 °F - 30.0 °F 37% 29.88 in 10.0 mi West 17.3 mph 25.3 mph N/A   Clear
5:51 PM 53.1 °F - 30.0 °F 41% 29.91 in 10.0 mi West 8.1 mph - N/A   Clear
6:51 PM 52.0 °F - 30.9 °F 45% 29.93 in 10.0 mi West 9.2 mph - N/A   Clear
7:51 PM 50.0 °F - 32.0 °F 50% 29.95 in 10.0 mi West 4.6 mph - N/A   Clear
8:51 PM 46.0 °F - 32.0 °F 58% 29.97 in 10.0 mi Calm Calm - N/A   Clear
9:51 PM 41.0 °F 37.1 °F 33.1 °F 73% 29.99 in 10.0 mi WSW 5.8 mph - N/A   Clear
10:51 PM 42.1 °F 40.2 °F 34.0 °F 73% 30.00 in 10.0 mi Variable 3.5 mph - N/A   Clear
11:51 PM 37.0 °F - 33.1 °F 86% 30.01 in 10.0 mi Calm Calm - N/A   Clear